This demonstration page uses our WeatherBlox Daily Observations layout. Learn more.

Left ArrowRight Arrow

34.74481, -87.66753

Hourly Observations for October 4, 2022

Temp ( °F °C ) Dew Point ( °F °C ) Humidity (%) Winds ( mph kmh ) Pressure ( in mb ) Visibility ( mi km ) Precip ( " mm )
12:53 am 00:53 Clear 53 11.7 50 10 89 89 Calm 30.13 1020 10 16 0.00 0.00
1:53 am 01:53 Clear 51 10.6 49 9.4 92 92 Calm 30.12 1020 9 14 0.00 0.00
2:12 am 02:12 Clear with Mist and Fog 51 10.6 49 9.4 92 92 Calm 30.15 1021 1 2 0.00 0.00
2:18 am 02:18 Clear with Mist and Fog 51 10.6 49 9.4 92 92 Calm 30.15 1021 3 5 0.00 0.00
2:37 am 02:37 Mostly Clear with Mist and Fog 52 11.1 50 10 93 93 Calm 30.14 1021 1 2 0.00 0.00
2:43 am 02:43 Mostly Clear with Fog 51 10.6 49 9.4 92 92 Calm 30.14 1021 0 0 0.00 0.00
2:55 am 02:55 Mostly Clear with Mist and Fog 50 10 49 9.4 96 96 Calm 30.14 1021 1 2 0.00 0.00
2:58 am 02:58 Mostly Clear with Mist and Fog 50 10 49 9.4 96 96 Calm 30.14 1021 3 5 0.00 0.00
3:53 am 03:53 Clear 49 9.4 47 8.3 93 93 Calm 30.11 1020 7 11 0.00 0.00
3:58 am 03:58 Clear with Mist and Fog 49 9.4 47 8.3 93 93 Calm 30.13 1020 2 3 0.00 0.00
4:07 am 04:07 Clear with Fog 48 8.9 47 8.3 96 96 Calm 30.13 1020 1 1 0.00 0.00
4:23 am 04:23 Mostly Clear with Mist and Fog 49 9.4 46 7.8 90 90 Calm 30.13 1020 1 1 0.00 0.00
4:25 am 04:25 Mostly Clear with Mist and Fog 49 9.4 46 7.8 90 90 Calm 30.13 1020 1 2 0.00 0.00
4:53 am 04:53 Clear with Mist and Fog 49 9.4 48 8.9 97 97 NE 3 6 30.11 1020 2 2 0.00 0.00
4:56 am 04:56 Clear with Mist and Fog 48 8.9 47 8.3 96 96 Calm 30.13 1020 4 6 0.00 0.00
5:30 am 05:30 Mostly Clear with Mist and Fog 47 8.3 45 7.2 93 93 Calm 30.14 1021 6 10 0.00 0.00
5:44 am 05:44 Mostly Clear with Mist and Fog 46 7.8 44 6.7 93 93 Calm 30.15 1021 2 3 0.00 0.00
5:53 am 05:53 Mostly Clear 45 7.2 44 6.7 97 97 Calm 30.13 1020 7 11 0.00 0.00
6:53 am 06:53 Sunny 45 7.2 43 6.1 93 93 Calm 30.15 1021 8 13 0.00 0.00
7:53 am 07:53 Sunny 52 11.1 49 9.4 89 89 Calm 30.16 1021 10 16 0.00 0.00
8:53 am 08:53 Sunny 59 15 53 11.7 81 81 Calm 30.17 1022 10 16 0.00 0.00
9:53 am 09:53 Sunny 64 17.8 53 11.7 67 67 Calm 30.18 1022 10 16 0.00 0.00
10:53 am 10:53 Sunny 69 20.6 54 12.2 59 59 VRB 5 7 30.16 1022 10 16 0.00 0.00
11:53 am 11:53 Sunny 71 21.7 52 11.1 51 51 undefined N/A 30.15 1021 10 16 0.00 0.00
12:53 pm 12:53 Sunny 75 23.9 50 10 41 41 N 7 11 30.14 1021 10 16 0.00 0.00
1:53 pm 13:53 Sunny 76 24.4 47 8.3 36 36 undefined N/A 30.10 1019 10 16 0.00 0.00
2:53 pm 14:53 Sunny 78 25.6 46 7.8 32 32 NW 6 9 30.08 1019 10 16 0.00 0.00
3:53 pm 15:53 Sunny 78 25.6 39 3.9 25 25 Calm 30.06 1018 10 16 0.00 0.00
4:53 pm 16:53 Sunny 78 25.6 39 3.9 25 25 NNE 5 7 30.05 1018 10 16 0.00 0.00
5:53 pm 17:53 Sunny 76 24.4 38 3.3 25 25 NNE 5 7 30.06 1018 10 16 0.00 0.00
6:53 pm 18:53 Clear 67 19.4 40 4.4 37 37 NE 5 7 30.07 1018 10 16 0.00 0.00
7:53 pm 19:53 Clear 64 17.8 42 5.6 45 45 NE 7 11 30.08 1019 10 16 0.00 0.00
8:53 pm 20:53 Clear 63 17.2 44 6.7 50 50 NE 7 11 30.09 1019 10 16 0.00 0.00
9:53 pm 21:53 Clear 59 15 46 7.8 62 62 NE 7 11 30.09 1019 10 16 0.00 0.00
10:53 pm 22:53 Clear 52 11.1 45 7.2 77 77 WSW 3 6 30.10 1019 10 16 0.00 0.00
11:53 pm 23:53 Clear 50 10 45 7.2 83 83 Calm 30.10 1019 10 16 0.00 0.00

Powered by AerisWeather